Content
SEND FEEDBACK

Daily
Averages
Monthly
Summary
United States of America

EAST HONOMANU, HAWAII


Home > North America > United States > Hawaii
Elevation: 3200 feet     Latitude: 20 49N     Longitude: 156 12W

WEATHER
 
SELECT A DAY
Number of Records: 217,181;   Date Range: 1/1/95 - 7/29/14
 
SHARE

PRINT THIS DATA

[ ← Previous Day ]
WEATHER ALMANAC - JANUARY 31, 2013
[ Next Day → ]
[ °C ]   °F
Weather ElementAverageHighLow
Temperature72.5 °F77 °F (1:54 pm)69.8 °F (9:29 am)
Dewpoint67.4 °F69.8 °F (7:54 am)64.9 °F (5:54 pm)
Humidity84 %94 % (7:54 am)74 % (1:54 pm)
Barometer30.08 in30.13 in (8:54 pm)30.03 in (3:36 am)
Wind Speed10.2 mph19.6 mph (11:54 pm)
Wind Gust27.6 mph (11:54 pm)
Weather ElementAverage
Visibility9.3 mi
Wind DirectionNE (47.6 °)

Weather ElementTotal
Precipitation0.94 in
Cooling Degree Days8.4 (Base 65)
Growing Degree Days23.4 (Base 50)
Averaged from 33 records on January 31, 2013
WEATHER CONDITIONS BREAKOUT
WIND DIRECTION BREAKOUT
WEATHER BY HOUR - JANUARY 31, 2013
[ °C ]   °F
Local TimeTemperatureDewpointHumidityBarometerVisibilityWind DirectionWind SpeedGust SpeedPrecipitationEventsConditions
1:05 AM71.6 °F66.2 °F83 %30.05 in10.0 miNE (40°)5.8 mphMostly Cloudy
1:54 AM72.0 °F68.0 °F87 %30.06 in10.0 miNE (50°)4.6 mphMostly Cloudy
2:17 AM71.6 °F66.2 °F83 %30.04 in10.0 miCalmMostly Cloudy
2:54 AM73.0 °F68.0 °F84 %30.05 in10.0 miNNE (20°)10.4 mphMostly Cloudy
3:36 AM73.4 °F68.0 °F83 %30.03 in10.0 miNNE (20°)10.4 mphMostly Cloudy
3:54 AM73.0 °F66.9 °F81 %30.04 in10.0 miNNE (30°)11.5 mphMostly Cloudy
4:34 AM73.4 °F66.2 °F78 %30.03 in10.0 miNNE (30°)12.7 mphMostly Cloudy
4:54 AM72.0 °F66.9 °F84 %30.04 in10.0 miNE (50°)8.1 mph0.00 inRainLight Rain
5:04 AM71.6 °F68.0 °F88 %30.03 in10.0 miENE (60°)6.9 mph0.00 inRainLight Rain
5:54 AM72.0 °F69.1 °F91 %30.05 in10.0 miNE (50°)8.1 mph0.02 inRainLight Rain
6:54 AM71.1 °F68.0 °F90 %30.07 in9.0 miNE (50°)5.8 mph0.03 inRainLight Rain
7:54 AM71.6 °F69.8 °F94 %30.09 in10.0 miENE (70°)5.8 mph0.06 inMostly Cloudy
8:54 AM73.0 °F69.1 °F87 %30.10 in10.0 miNE (40°)9.2 mph0.01 inRainLight Rain
8:58 AM73.4 °F69.8 °F88 %30.09 in10.0 miNE (50°)8.1 mph0.00 inRainLight Rain
9:15 AM71.6 °F66.2 °F83 %30.10 in2.0 miEast (80°)5.8 mph0.00 inRainLight Rain
9:29 AM69.8 °F66.2 °F88 %30.10 in7.0 miENE (70°)6.9 mph0.12 inRainHeavy Rain
9:41 AM69.8 °F66.2 °F88 %30.10 in7.0 miEast (80°)4.6 mph0.15 inRainRain
9:54 AM71.1 °F68.0 °F90 %30.12 in3.0 miENE (60°)6.9 mph0.37 inRainRain
10:54 AM73.0 °F69.1 °F87 %30.12 in10.0 miNE (50°)12.7 mph0.16 inRainLight Rain
11:54 AM73.9 °F69.1 °F85 %30.11 in8.0 miNE (50°)15.0 mph0.00 inRainLight Rain
12:54 PM73.9 °F68.0 °F82 %30.09 in10.0 miNE (40°)13.8 mph0.01 inRainLight Rain
1:54 PM77.0 °F68.0 °F74 %30.07 in10.0 miNE (40°)15.0 mph0.00 inOvercast
2:54 PM75.9 °F69.1 °F79 %30.06 in10.0 miNE (40°)16.1 mphMostly Cloudy
3:54 PM75.0 °F66.9 °F76 %30.06 in10.0 miNE (40°)16.1 mphMostly Cloudy
4:54 PM73.0 °F66.0 °F79 %30.07 in10.0 miENE (60°)12.7 mph0.00 inOvercast
5:54 PM73.0 °F64.9 °F76 %30.08 in10.0 miNE (50°)9.2 mphScattered Clouds
6:54 PM72.0 °F66.0 °F81 %30.09 in10.0 miNE (50°)8.1 mphMostly Cloudy
7:54 PM71.1 °F66.9 °F87 %30.11 in10.0 miENE (60°)10.4 mph0.01 inRainLight Rain
8:54 PM71.1 °F66.9 °F87 %30.13 in10.0 miENE (60°)10.4 mph0.00 inRainLight Rain
9:54 PM72.0 °F66.0 °F81 %30.13 in10.0 miNE (50°)16.1 mph0.00 inRainLight Rain
10:54 PM72.0 °F66.9 °F84 %30.13 in10.0 miNE (40°)16.1 mph0.00 inMostly Cloudy
11:43 PM71.6 °F66.2 °F83 %30.10 in10.0 miNE (50°)15.0 mph21.9 mph0.00 inRainLight Rain
11:54 PM72.0 °F66.0 °F81 %30.11 in10.0 miNE (40°)19.6 mph27.6 mph0.00 inScattered Clouds
Hourly data recorded from PHOG, located miles away from East Honomanu, Hawaii







STORIES FROM OUR PARTNERS